Home   Weather   Ceduna   Past weeks
Flag for Australia

Past Weather in Ceduna, South Australia, Australia — Yesterday and Last 2 Weeks

Now
62 °F

Cool.


Feels Like: 62 °F
Forecast: 68 / 58 °F
Wind: 10 mph from South

Location: Ceduna Airport

Current Time: Apr 5, 2020 at 8:58:27 pm

Latest Report: Apr 5, 2020 at 7:30 pm


Visibility: N/A

Pressure: 30.15 "Hg

Humidity: 79%

Dew Point: 55 °F

Location of CedunaLocation

Past Weather in Ceduna — Graph

°F

Ceduna Temperature Yesterday

Maximum temperature yesterday: 68 °F (at 3:00 pm)
Minimum temperature yesterday: 60 °F (at 8:30 am)
Average temperature yesterday: 63 °F

High & Low Weather Summary for the Past Weeks

 TemperatureHumidityPressure
High96 °F (Mar 28, 4:30 pm)99% (Mar 31, 8:30 am)30.36 "Hg (Mar 31, 8:30 am)
Low49 °F (Mar 31, 7:30 am)15% (Mar 28, 1:30 pm)29.67 "Hg (Apr 3, 6:00 am)
Average64 °F75%30.05 "Hg
* Reported Mar 21 8:30 pm — Apr 5 7:30 pm, Ceduna. Weather by CustomWeather, © 2020

Note: Actual official high and low records may vary slightly from our data, if they occured in-between our weather recording intervals... More about our weather records

Ceduna Weather History for the Previous 24 Hours

Scroll right to see more
 ConditionsComfort  
Time TempWeatherWind HumidityBarometerVisibility
7:30 pm
Sun, Apr 5
62 °FCool.10 mph79%30.15 "HgN/A
6:30 pm63 °FMild.9 mph76%30.14 "HgN/A
6:00 pm64 °FMild.9 mph70%30.12 "HgN/A
5:30 pm65 °FMild.12 mph67%30.12 "HgN/A
4:30 pm65 °FMild.15 mph62%30.11 "HgN/A
3:30 pm66 °FMild.15 mph69%30.11 "HgN/A
3:00 pm67 °FPartly sunny.16 mph66%30.11 "HgN/A
2:30 pm68 °FMild.16 mph61%30.12 "HgN/A
1:30 pm67 °FMild.13 mph63%30.13 "HgN/A
12:30 pm66 °FMild.13 mph65%30.15 "HgN/A
11:30 am67 °FMild.9 mph64%30.16 "HgN/A
10:30 am65 °FMild.9 mph72%30.17 "HgN/A
9:30 am62 °FMild.8 mph81%30.16 "HgN/A
9:00 am60 °FPartly sunny.9 mph87%30.16 "HgN/A
8:30 am59 °FCool.8 mph92%30.15 "HgN/A
7:30 am57 °FCool.7 mph95%30.13 "HgN/A
6:30 am57 °FCool.5 mph92%30.11 "HgN/A
5:30 am59 °FCool.12 mph91%30.09 "HgN/A
3:30 am55 °FCool.7 mph95%30.08 "HgN/A
3:00 am55 °FOvercast.6 mph93%30.09 "HgN/A
2:30 am57 °FCool.7 mph92%30.09 "HgN/A
2:30 am58 °FCool.3 mph88%30.10 "HgN/A
1:30 am59 °FCool.7 mph81%30.11 "HgN/A
12:30 am61 °FCool.12 mph77%30.11 "HgN/A
11:30 pm
Sat, Apr 4
61 °FCool.13 mph73%30.11 "HgN/A
10:30 pm60 °FCool.10 mph85%30.12 "HgN/A
9:30 pm62 °FCool.8 mph72%30.10 "HgN/A
9:00 pm63 °FOvercast.12 mph62%30.10 "HgN/A
8:30 pm63 °FMild.12 mph60%30.09 "HgN/A
Weather by CustomWeather, © 2020

See weather overview

Advertising